Date,SPY realized variance,BAC realized variance,SPY-BAC realized covariance
2001-02-01,0.74522508,9.019081599,0.712780854
2001-02-02,1.014646649,1.27838969,0.261607975
2001-02-05,0.740494006,2.124839938,0.372776197
2001-02-06,0.503368299,2.450905537,0.148950164
2001-02-07,0.783841399,2.03318033,0.370755175
2001-02-08,0.715253566,1.770339058,0.232930448
2001-02-09,0.79170945,2.4982553,0.601650753
2001-02-12,0.841678186,1.341700181,0.415012901
2001-02-13,0.826219436,3.889595798,0.614549786
2001-02-14,0.947135875,2.074071004,0.231862119
2001-02-15,0.38837103,3.347348628,0.268625134
2001-02-16,1.078002719,3.444487991,0.155167559
2001-02-20,0.987854132,4.680048406,0.806168433
2001-02-21,1.656730515,5.853496741,1.754185788
2001-02-22,4.901407719,12.56221333,4.711223653
2001-02-23,3.878554105,11.96723856,4.934337833
2001-02-26,1.555466982,9.973470503,1.866665385
2001-02-27,2.226227335,10.08293437,2.733065966
2001-02-28,3.052232784,7.478162653,3.228634866
2001-03-01,3.235084954,8.82862143,3.290170568
2001-03-02,2.923868861,9.547824736,3.078030635
2001-03-05,1.064482276,5.058864665,1.375700913
2001-03-06,0.911415776,3.520531961,0.914486605
2001-03-07,1.132851604,2.874969381,0.841934124
2001-03-08,0.943195816,2.514867485,0.584089979
2001-03-09,1.969834074,2.931998912,1.345391454
2001-03-12,3.652968955,3.821083351,1.998420518
2001-03-13,3.115116718,5.157990665,2.775522948
2001-03-14,6.486474337,16.13414177,6.802904935
2001-03-15,1.065490884,4.199341494,1.245169504
2001-03-16,2.230901399,4.404869919,1.993101338
2001-03-19,1.366892047,5.044201637,1.640378907
2001-03-20,4.175255128,9.937213863,5.198833181
2001-03-21,4.098987323,10.68144058,4.139985716
2001-03-22,6.374909669,17.82001845,8.189463353
2001-03-23,3.694822454,10.35963008,3.539323615
2001-03-26,1.251724152,6.239031902,1.585474078
2001-03-27,1.716500976,10.50664584,2.514050242
2001-03-28,2.451358418,4.498075801,1.875329436
2001-03-29,2.589818093,4.930016811,2.519610959
2001-03-30,2.342026656,4.486840451,2.478860829
2001-04-02,2.48542183,5.651481461,2.522403333
2001-04-03,2.698623752,4.797659638,2.179029117
2001-04-04,4.687375324,8.729844527,4.063309968
2001-04-05,1.557306119,5.276387501,1.787600004
2001-04-06,3.553635551,32.85219167,5.165265579
2001-04-09,1.700891021,4.549484349,1.970263343
2001-04-10,1.408680265,4.030202531,1.251882323
2001-04-11,1.754289686,3.631563924,1.379841064
2001-04-12,1.902155289,4.08832708,1.882635758
2001-04-16,1.332368906,6.851014208,1.302967858
2001-04-17,2.064748031,2.078410864,0.860546518
2001-04-18,5.831855913,14.73208076,7.072667485
2001-04-19,1.154429155,5.596368519,1.219306637
2001-04-20,1.052771398,3.224708775,0.700423748
2001-04-23,0.794230553,1.76974571,0.461276706
2001-04-24,1.151515396,1.20386828,0.592703384
2001-04-25,1.226282601,3.845994862,1.390297739
2001-04-26,1.136541791,3.461626649,0.88969089
2001-04-27,0.906397152,1.980814755,0.691010219
2001-04-30,0.984750632,3.067728645,1.082976856
2001-05-01,1.074268124,2.654190729,0.833006712
2001-05-02,1.159904745,2.607228295,0.970882993
2001-05-03,0.914351973,1.927787443,0.689052138
2001-05-04,1.902717511,1.86266959,1.348472785
2001-05-07,0.873954523,1.234947355,0.607612406
2001-05-08,0.796542041,0.793661106,0.471888886
2001-05-09,0.76452747,1.042802966,0.428605802
2001-05-10,0.682243498,0.634709476,0.230988798
2001-05-11,0.901520799,2.652518128,0.833860012
2001-05-14,0.529318018,1.11999133,0.367273414
2001-05-15,1.416744226,3.057831246,1.542453141
2001-05-16,1.055175874,1.869110764,0.852043363
2001-05-17,0.936234671,1.664467705,0.700898771
2001-05-18,0.625861338,1.551307172,0.510429707
2001-05-21,0.720447792,1.152727123,0.41755461
2001-05-22,0.805987553,3.174884959,0.6207249
2001-05-23,0.900632444,3.252355829,0.806602374
2001-05-24,0.832054811,2.38546689,0.827153102
2001-05-25,0.523503514,1.24177644,0.317638957
2001-05-29,0.682526337,1.133532045,0.361733516
2001-05-30,0.716729924,2.430042217,0.648112199
2001-05-31,0.760862837,1.599142958,0.372055885
2001-06-01,1.067474723,2.000955839,0.714514465
2001-06-04,0.524803631,0.931355275,0.23524485
2001-06-05,0.594059227,1.343567964,0.44997536
2001-06-06,0.742720166,2.322366717,0.686055811
2001-06-07,0.711897277,2.469707242,0.75692106
2001-06-08,0.305702301,0.901497248,0.168420429
2001-06-11,0.387395506,1.060286847,0.322223445
2001-06-12,0.965012633,1.469960549,0.719500932
2001-06-13,0.673364699,1.164620793,0.375688387
2001-06-14,0.756547798,2.095293248,0.735030053
2001-06-15,1.281116327,2.187169545,0.884851526
2001-06-18,0.771166182,2.733111563,0.881103213
2001-06-19,0.731528793,2.442797206,0.667760238
2001-06-20,1.18886611,2.283723238,0.915583267
2001-06-21,0.967106222,1.857116597,0.314380251
2001-06-22,0.931729691,2.820170337,0.324632356
2001-06-25,0.617585766,1.945994393,0.481847938
2001-06-26,0.879645902,2.222294315,0.744334209
2001-06-27,1.092048464,2.197618609,1.202941832
2001-06-28,1.044668573,2.205936843,0.677979509
2001-06-29,0.708861692,1.855217538,0.407859939
2001-07-02,0.564804513,1.307759768,0.545534563
2001-07-03,0.279706212,0.813036965,0.161752108
2001-07-05,0.417427778,0.966779604,0.423745842
2001-07-06,1.053662407,2.704736903,0.963396335
2001-07-09,0.702922199,1.586469698,0.738570447
2001-07-10,0.629723946,1.537266315,0.540251702
2001-07-11,1.653076758,4.103047065,1.580491813
2001-07-12,0.618150646,2.807665652,0.679399545
2001-07-13,0.680832313,1.772235526,0.34822912
2001-07-16,0.819745559,2.041001111,0.538025194
2001-07-17,0.923038606,1.910865868,0.594342091
2001-07-18,1.100566921,1.818591796,0.521355054
2001-07-19,1.152461569,2.037033424,0.759239599
2001-07-20,0.579435023,1.185712965,0.236412229
2001-07-23,0.861189245,1.338788613,0.573251051
2001-07-24,1.169461845,1.971885593,0.895677708
2001-07-25,0.913351628,1.811850372,0.326721789
2001-07-26,0.732657448,1.376422567,0.413076567
2001-07-27,0.719347653,0.753558935,0.280633367
2001-07-30,0.523654518,1.068825469,0.327943744
2001-07-31,0.601438495,0.822190275,0.230916424
2001-08-01,0.586244062,0.767615703,0.423913515
2001-08-02,0.453674265,0.986011832,0.184940656
2001-08-03,0.761316521,0.833889275,0.482259838
2001-08-06,0.39683466,0.909322587,0.255015452
2001-08-07,0.477145879,0.761084017,0.372889242
2001-08-08,0.67157818,1.280507773,0.412845171
2001-08-09,1.161966617,1.067085433,0.628453875
2001-08-10,1.397691129,0.920085161,0.450068555
2001-08-13,0.569795776,0.828249871,0.364717759
2001-08-14,0.491994521,0.750073733,0.2504132
2001-08-15,0.763545384,1.139114256,0.417489733
2001-08-16,1.078351795,1.267590661,0.694517005
2001-08-17,0.768608837,1.256604119,0.475338907
2001-08-20,0.56432001,0.859506117,0.330763184
2001-08-21,0.821157981,2.594659445,0.851918764
2001-08-22,1.128079094,2.857218132,1.164753715
2001-08-23,0.678652715,0.994490544,0.467140901
2001-08-24,0.81141035,2.119710569,0.3978086
2001-08-27,0.505345989,1.201908832,0.431232617
2001-08-28,0.776362825,1.460975285,0.666672234
2001-08-29,0.873748635,1.817359987,0.570606099
2001-08-30,1.633566689,3.013334098,1.310401765
2001-08-31,1.422520867,3.345579854,1.626654912
2001-09-04,1.629849898,3.131353328,1.096040884
2001-09-05,2.941424832,2.991451528,2.049878219
2001-09-06,2.238110039,4.523624119,1.945633386
2001-09-07,2.731845451,5.114737373,2.614154336
2001-09-10,2.438980083,4.533758812,2.095978998
2001-09-17,3.113480413,6.08851184,1.915875042
2001-09-18,1.027791909,5.041766778,0.843327455
2001-09-19,4.958225488,9.375930855,3.983149156
2001-09-20,3.464493573,7.543316329,3.64055161
2001-09-21,10.94841121,21.95375602,10.21021679
2001-09-24,1.720241232,5.292744966,1.683645979
2001-09-25,2.618374773,5.669221534,2.160643626
2001-09-26,1.180480726,4.584847708,0.997434302
2001-09-27,1.777691811,4.486972113,1.333579746
2001-09-28,1.46350463,2.582889245,0.753572918
2001-10-01,0.973281911,2.475535043,0.925811408
2001-10-02,1.334329665,3.682351594,1.072240384
2001-10-03,1.806223476,4.038807236,1.684161381
2001-10-04,2.255002654,4.338833577,1.689059665
2001-10-05,1.914485493,7.649534835,1.964721417
2001-10-08,1.446750642,4.112506402,1.210724607
2001-10-09,1.003532665,8.068088057,1.454432227
2001-10-10,1.408694822,5.72474794,1.459241926
2001-10-11,1.064733265,7.095793143,1.074710766
2001-10-12,4.228122206,5.614587955,1.56572485
2001-10-15,1.022117513,6.197614279,0.553427421
2001-10-16,1.241023742,4.967835606,1.349534354
2001-10-17,2.454533764,7.582663372,2.531569605
2001-10-18,1.382347268,3.203723589,1.146637643
2001-10-19,0.939325195,4.211187976,1.097097648
2001-10-22,1.024191115,3.52986857,0.99187216
2001-10-23,1.517503269,2.534880613,1.020433107
2001-10-24,1.176732766,1.242363812,0.636910192
2001-10-25,1.63733843,2.213678151,1.186228912
2001-10-26,1.394672304,2.433307261,0.770368287
2001-10-29,1.352196222,2.868345615,1.14623439
2001-10-30,1.400757517,4.307957021,1.364385566
2001-10-31,1.611761136,2.672033978,1.453930388
2001-11-01,2.378455921,4.41954747,2.232419832
2001-11-02,1.178459973,2.474665329,0.878943925
2001-11-05,0.690779415,2.602256767,0.759013523
2001-11-06,1.349663611,2.483124871,1.281905601
2001-11-07,1.139563716,2.07867305,0.839629968
2001-11-08,1.023916073,3.247837614,1.119630661
2001-11-09,1.288621396,1.931935837,1.107014129
2001-11-12,2.41693974,2.902953436,1.670807546
2001-11-13,0.644642268,1.770382912,0.375421264
2001-11-14,0.938682234,1.43781644,0.74266198
2001-11-15,0.864917039,1.340054844,0.643168004
2001-11-16,0.722995613,1.150808713,0.404466052
2001-11-19,0.616161849,1.645804956,0.584368104
2001-11-20,0.615025399,1.299591598,0.485894314
2001-11-21,0.560987752,1.406857338,0.371577951
2001-11-23,0.246179485,0.540478321,0.12859657
2001-11-26,0.572156641,0.888709154,0.363491545
2001-11-27,1.593648584,1.885264933,1.250048947
2001-11-28,1.04018123,2.651312841,0.81527045
2001-11-29,0.922614575,1.847403354,0.711475383
2001-11-30,0.533564641,1.283451489,0.427175923
2001-12-03,0.717931543,1.77436089,0.590109912
2001-12-04,0.48815228,3.606336697,0.77807686
2001-12-05,0.692910966,1.468354821,0.482745673
2001-12-06,0.608176587,1.595526607,0.467411843
2001-12-07,0.65515136,1.785157713,0.536597747
2001-12-10,0.479921036,1.515517718,0.438813884
2001-12-11,0.936572633,3.239260282,0.822030431
2001-12-12,0.874952378,1.773228825,0.779556976
2001-12-13,0.880214221,2.065049583,0.778560584
2001-12-14,0.80222605,1.732476274,0.734377481
2001-12-17,0.590686882,2.458370058,0.626922334
2001-12-18,0.41494069,1.87397108,0.392294663
2001-12-19,0.606325584,1.936014188,0.549658728
2001-12-20,0.524135289,1.183707242,0.376123833
2001-12-21,0.273556436,1.914254885,0.240710594
2001-12-24,0.048670208,0.475182553,0.059261358
2001-12-26,0.352205493,0.97071643,0.211105784
2001-12-27,0.244225765,1.142997407,0.203770331
2001-12-28,0.277301418,1.106554029,0.190597905
2001-12-31,0.384986529,1.1596605,0.429138741
2002-01-02,1.039831574,1.471742217,0.806068858
2002-01-03,0.470472278,1.966413566,0.537456836
2002-01-04,0.741885585,2.124136478,0.722344311
2002-01-07,0.54115116,1.812133679,0.392743471
2002-01-08,0.492727344,1.422772958,0.424783988
2002-01-09,0.768660351,1.686349238,0.637359464
2002-01-10,0.629481885,1.520334166,0.397118418
2002-01-11,0.751623906,1.260829523,0.496394703
2002-01-14,0.416971688,0.918240203,0.2250988
2002-01-15,0.54714144,2.080928818,0.498527999
2002-01-16,0.648083057,2.409498449,0.826270635
2002-01-17,0.414505059,0.885085353,0.235013374
2002-01-18,0.616627337,1.757506547,0.69138732
2002-01-22,0.506811053,2.26168204,0.296996069
2002-01-23,0.566793927,1.547070513,0.316633031
2002-01-24,0.503457611,1.718994579,0.359206542
2002-01-25,0.481520044,1.807551399,0.401094957
2002-01-28,0.311198011,1.128835413,0.287889003
2002-01-29,1.188833516,6.180964947,1.635199562
2002-01-30,2.755507943,6.873335254,2.916374318
2002-01-31,0.878347529,2.41414821,0.835486731
2002-02-01,0.552040794,1.744926027,0.483989332
2002-02-04,0.95310603,3.849115035,0.939110241
2002-02-05,1.947097524,6.114077966,2.606634314
2002-02-06,1.988107669,4.730391867,2.269753995
2002-02-07,1.250298411,3.775964349,1.439151902
2002-02-08,1.136202693,3.543869826,1.432840759
2002-02-11,0.438042224,1.260551319,0.32657944
2002-02-12,0.434519887,1.263263497,0.363279135
2002-02-13,0.58111257,3.264676717,0.899635325
2002-02-14,0.580805989,2.912010055,0.842498097
2002-02-15,0.880604256,1.731450466,0.798450357
2002-02-19,0.720848533,2.609334624,0.792945818
2002-02-20,1.055527554,3.152551649,1.137665872
2002-02-21,1.136287539,2.231302462,1.018535295
2002-02-22,1.652153978,3.458515147,1.572422257
2002-02-25,0.833842431,2.697905019,0.88830813
2002-02-26,1.128319967,2.818529109,1.129050016
2002-02-27,1.07587766,3.013024091,0.839248159
2002-02-28,1.042737508,2.668497974,1.219466743
2002-03-01,0.687309817,1.742817405,0.599140168
2002-03-04,0.704467057,2.799823575,0.624472009
2002-03-05,0.915712852,2.421618593,0.915586447
2002-03-06,0.778387054,2.094070203,0.703146307
2002-03-07,0.944290936,1.83344151,0.656364818
2002-03-08,0.679182937,1.536149091,0.705919506
2002-03-11,0.364477024,1.799074307,0.419034635
2002-03-12,0.569095077,2.461937064,0.746211901
2002-03-13,0.578088416,1.568275574,0.511024538
2002-03-14,0.382506634,1.32801756,0.38084081
2002-03-15,0.400027823,1.062624081,0.270690174
2002-03-18,0.518303355,1.280278587,0.432770187
2002-03-19,0.53533757,1.471804506,0.522330181
2002-03-20,0.351594636,1.042854564,0.276135003
2002-03-21,0.695424638,1.501506765,0.561460469
2002-03-22,0.599087388,1.554367866,0.484708916
2002-03-25,0.510729678,1.068285689,0.445110579
2002-03-26,0.900824875,2.036133094,0.958510716
2002-03-27,0.652839348,1.424257276,0.607977024
2002-03-28,0.51868342,1.913381168,0.597923704
2002-04-01,0.432816499,1.171786808,0.384153686
2002-04-02,0.51582879,1.601854618,0.589851112
2002-04-03,0.500113649,0.959337396,0.423672243
2002-04-04,0.774934396,1.581321772,0.78116194
2002-04-05,0.64234974,1.278475047,0.553140003
2002-04-08,0.610405046,1.607714156,0.671620086
2002-04-09,0.535066366,0.757831452,0.391906496
2002-04-10,0.720686322,1.020451558,0.506850177
2002-04-11,0.912602911,1.637520107,0.800016754
2002-04-12,0.681580397,1.147225633,0.465271935
2002-04-15,0.798088917,3.072099197,1.045106563
2002-04-16,0.317655303,1.169879879,0.272268213
2002-04-17,0.468953928,1.197131189,0.398192613
2002-04-18,1.339306065,1.728572074,0.725465738
2002-04-19,0.342377295,1.171316362,0.230872773
2002-04-22,0.42731319,1.05642955,0.160601222
2002-04-23,0.746014973,1.44423623,0.499834937
2002-04-24,0.682227111,1.526921879,0.704728672
2002-04-25,0.794380795,1.489470833,0.588623395
2002-04-26,0.830136537,1.575784093,0.562844893
2002-04-29,0.779171947,1.534685656,0.664731598
2002-04-30,0.682873887,1.591622012,0.616468476
2002-05-01,1.237821049,2.229685633,0.949052199
2002-05-02,0.962837698,1.661635516,0.707984931
2002-05-03,0.912506396,1.310521891,0.516289683
2002-05-06,0.738958185,1.311682431,0.588448115
2002-05-07,0.801357536,1.21070554,0.389244233
2002-05-08,0.716407387,0.88145525,0.256643322
2002-05-09,1.011781957,1.073224154,0.65676416
2002-05-10,0.833290401,1.089385369,0.489956538
2002-05-13,0.723471343,0.36171883,0.213779717
2002-05-14,0.40596824,0.784858662,0.291029325
2002-05-15,1.027135923,0.903057625,0.488265366
2002-05-16,0.631677104,0.846191633,0.348923419
2002-05-17,0.539484681,0.503629986,0.159363818
2002-05-20,0.501181661,0.536905994,0.220573004
2002-05-21,0.59706101,0.76322168,0.328556641
2002-05-22,0.923119016,1.885854763,0.885432841
2002-05-23,0.74665372,0.980493405,0.512774921
2002-05-24,0.586175321,0.442709451,0.205092252
2002-05-28,0.650461252,0.897207343,0.486225499
2002-05-29,0.485783188,0.790825932,0.320993671
2002-05-30,0.852385093,1.684792435,0.819463005
2002-05-31,0.836381305,0.921420219,0.505373872
2002-06-03,1.276564124,1.204598871,0.788371129
2002-06-04,1.958970507,1.395999299,1.274923395
2002-06-05,0.993402821,1.38841826,0.566204291
2002-06-06,1.093644105,3.527466785,0.875772828
2002-06-07,1.404478511,3.13657306,1.388589773
2002-06-10,1.154966364,0.936681837,0.660643385
2002-06-11,1.010282022,1.639155179,0.748486413
2002-06-12,2.459859294,2.939838579,1.934063335
2002-06-13,1.158325538,2.410181391,1.202153288
2002-06-14,3.533061045,3.75334389,2.255389947
2002-06-17,0.836733789,1.045424768,0.515671345
2002-06-18,0.870620036,1.624475936,0.825344866
2002-06-19,1.101156126,1.921568579,0.986989443
2002-06-20,1.7304676,2.283727785,1.274341486
2002-06-21,1.583535321,2.317411631,1.127931884
2002-06-24,3.310800151,4.286076019,2.932853258
2002-06-25,1.879981859,2.818599495,1.667338081
2002-06-26,4.490012802,4.833540842,3.056535916
2002-06-27,2.512368614,2.280490142,1.354712387
2002-06-28,1.448895604,1.964821191,1.069993069
2002-07-01,1.618766635,2.314870445,1.307385769
2002-07-02,2.987614638,5.611962227,2.9310389
2002-07-03,2.446691989,3.862028454,2.259175454
2002-07-05,0.759626554,0.937388622,0.440368935
2002-07-08,1.800411983,2.968334872,1.622175742
2002-07-09,1.85258414,2.108995932,1.376955654
2002-07-10,3.674372937,3.398446715,2.303827186
2002-07-11,6.277681269,7.626149316,5.831442434
2002-07-12,4.123033289,5.965711143,3.70391124
2002-07-15,5.277282319,7.71444392,3.560704164
2002-07-16,5.823269721,6.662326775,4.589140221
2002-07-17,4.771231646,7.878974553,4.174982627
2002-07-18,2.914585999,7.83341922,3.20940226
2002-07-19,3.403092883,6.620010163,2.687044223
2002-07-22,13.14484697,20.15633899,14.12132637
2002-07-23,11.62891394,18.64668577,11.02020244
2002-07-24,12.96906549,22.32401073,12.75793894
2002-07-25,11.64367122,17.92960529,10.60417564
2002-07-26,4.589602995,7.930176573,4.714682037
2002-07-29,2.306337587,3.490762203,1.577329403
2002-07-30,4.02415858,6.55428742,3.93322491
2002-07-31,3.212032864,5.290433709,3.033113662
2002-08-01,3.428132902,4.788162995,2.953548102
2002-08-02,3.449792344,7.559168671,4.065918694
2002-08-05,2.659579017,5.227116525,2.567344862
2002-08-06,3.671150636,5.148290588,3.241429513
2002-08-07,3.835571049,5.039295611,3.426285205
2002-08-08,2.967707639,5.63915142,2.734191126
2002-08-09,3.022648022,4.27353058,2.892493457
2002-08-12,1.574695974,3.439682268,1.85245866
2002-08-13,2.921066425,3.131008462,2.340500286
2002-08-14,3.32867304,3.86235157,2.317851507
2002-08-15,4.036506883,3.679723991,2.827836582
2002-08-16,1.896039684,1.652384392,1.230464279
2002-08-19,1.303674183,1.626020063,0.924179316
2002-08-20,1.649066363,2.304130433,1.410679186
2002-08-21,2.721671048,3.398321901,2.625738902
2002-08-22,1.768101267,1.539036721,1.102897449
2002-08-23,1.188475271,1.372039368,0.711028925
2002-08-26,1.659068826,3.032225917,1.404131845
2002-08-27,2.32323721,1.522254029,1.291751159
2002-08-28,1.372310938,2.209147706,1.271638344
2002-08-29,2.111444125,3.476632012,2.045265405
2002-08-30,1.683299972,1.660645209,1.080921269
2002-09-03,1.845443964,3.496786037,1.866127419
2002-09-04,2.540857918,2.562846481,1.995227371
2002-09-05,2.419728933,3.540533641,2.034508485
2002-09-06,1.397235019,2.262859809,1.093579947
2002-09-09,1.638008978,2.518336031,1.4295253
2002-09-10,1.327612681,4.290215366,1.851543402
2002-09-11,0.98570341,2.256932458,1.213726531
2002-09-12,1.066638503,1.950318313,0.965448396
2002-09-13,2.0394934,2.413319135,1.653934562
2002-09-16,1.302523358,1.964875511,1.049523507
2002-09-17,2.074149313,2.454039978,1.535705213
2002-09-18,1.969338545,3.10212367,1.713889746
2002-09-19,2.066929084,3.946035307,2.005767995
2002-09-20,2.002092163,4.103411144,2.107921757
2002-09-23,2.540904927,5.273333941,2.495758389
2002-09-24,4.000911763,8.723151519,4.462097133
2002-09-25,2.677659397,5.278147867,2.643723175
2002-09-26,2.403946978,3.773704752,2.34268062
2002-09-27,2.411935247,4.814868654,2.416054436
2002-09-30,4.483630402,9.15529747,5.117794956
2002-10-01,3.285673353,5.729886951,3.516389908
2002-10-02,2.953696421,5.142147977,2.970772205
2002-10-03,4.668441976,9.294985678,4.647676939
2002-10-04,5.94805002,14.00388648,7.116571108
2002-10-07,4.370581753,13.07119199,6.04259432
2002-10-08,6.555926631,9.637697079,6.055330325
2002-10-09,4.843806417,9.277592534,4.96920708
2002-10-10,6.276743658,12.5473383,7.449237429
2002-10-11,3.570800733,6.853801662,3.563771616
2002-10-14,2.618247216,6.453797071,3.199160917
2002-10-15,1.900974255,3.674311788,1.572613688
2002-10-16,1.857013656,3.938400432,1.538744864
2002-10-17,1.414954215,2.078794542,1.148468826
2002-10-18,2.192330043,2.825775275,1.847578406
2002-10-21,1.816983427,2.019364811,1.455381768
2002-10-22,1.624654538,1.626107373,1.239292468
2002-10-23,2.948884249,2.628205888,2.114815457
2002-10-24,2.77865425,3.491309427,2.628745559
2002-10-25,2.430677767,3.108096342,2.053795378
2002-10-28,2.229934888,2.892807073,1.905126234
2002-10-29,3.542284406,3.519451533,2.664623464
2002-10-30,2.237494601,1.973573262,1.531396561
2002-10-31,3.31412449,3.088997912,2.552782154
2002-11-01,2.34553149,3.763168405,2.271997767
2002-11-04,1.214329726,1.709918717,1.053938232
2002-11-05,1.110862592,2.221960258,1.250108971
2002-11-06,4.23518798,8.521644354,4.971761374
2002-11-07,1.78355693,2.90231106,1.621210457
2002-11-08,1.894730145,2.57572017,1.491883986
2002-11-11,1.050377446,2.135337261,1.080032384
2002-11-12,1.341553327,1.993726914,1.120702251
2002-11-13,3.441331213,5.996360688,3.850978487
2002-11-14,1.093385646,1.938605081,0.90351198
2002-11-15,1.447325605,2.231016012,1.267494079
2002-11-18,1.017890662,1.987779951,0.940525748
2002-11-19,1.141467352,2.755763872,1.069038527
2002-11-20,1.240431391,1.984088586,0.997848804
2002-11-21,1.138674497,1.741838659,0.919302511
2002-11-22,0.939189296,2.287746046,0.910028012
2002-11-25,1.040436756,1.749297704,1.020759604
2002-11-26,0.994643469,1.807317514,0.859675426
2002-11-27,1.267699714,1.640707581,1.118561407
2002-11-29,0.639840843,0.755374186,0.433367634
2002-12-02,1.886437367,3.036290792,1.655788804
2002-12-03,1.092060704,2.755085081,1.186179896
2002-12-04,2.090977347,3.469299123,1.970638041
2002-12-05,1.05800669,1.592412075,0.962104805
2002-12-06,1.781744188,3.712958401,1.942877484
2002-12-09,1.161607056,1.937642556,1.181100328
2002-12-10,0.903298744,1.48312451,0.693113541
2002-12-11,0.883237872,1.728294977,0.904219762
2002-12-12,1.516260841,1.694275707,1.266057992
2002-12-13,1.102961276,1.926115971,1.040346752
2002-12-16,0.640645313,1.484395461,0.739373705
2002-12-17,0.704754228,0.984701391,0.620750605
2002-12-18,0.922588338,1.422769086,0.82869884
2002-12-19,1.598116297,2.002126727,1.461918655
2002-12-20,0.631002686,1.077179681,0.469466039
2002-12-23,0.682299789,1.644812722,0.655561191
2002-12-24,0.201011654,0.362975078,0.174517816
2002-12-26,0.827423052,1.19973364,0.795906679
2002-12-27,0.919911991,1.400935547,0.900266635
2002-12-30,0.936145912,1.323716095,0.85682145
2002-12-31,1.049274295,2.380029477,1.261611334
2003-01-02,1.684320137,1.659909979,1.183730618
2003-01-03,0.789159009,1.360700544,0.634548484
2003-01-06,0.779580357,1.29866569,0.766281772
2003-01-07,1.063483649,1.168206124,0.814099471
2003-01-08,0.952653947,1.169926671,0.724699947
2003-01-09,0.73141322,0.723068022,0.481201364
2003-01-10,1.187283369,1.573340213,1.071155377
2003-01-13,0.877267329,1.120276598,0.764597837
2003-01-14,0.655249567,0.65407361,0.475648239
2003-01-15,0.840663931,1.970451351,0.963918543
2003-01-16,0.950199945,2.15741158,0.959155819
2003-01-17,0.740382414,1.263201495,0.589827173
2003-01-21,0.849282181,1.229121416,0.720157479
2003-01-22,1.08979933,2.05191736,1.018628208
2003-01-23,1.111522124,1.152695448,0.890830743
2003-01-24,1.709674533,1.516280479,1.243524291
2003-01-27,2.519934659,1.987425686,1.761429784
2003-01-28,1.813768565,1.444335181,1.321949635
2003-01-29,1.965573516,2.424088231,1.907295533
2003-01-30,1.720173656,2.132294548,1.569992205
2003-01-31,2.335253057,2.573988672,2.075147466
2003-02-03,1.243104308,1.39303918,1.060573798